ITALSAT 1

Satellite information

Favourite Embed

Satellite Type and Status

PAYLOADIN ORBIT

Key statistics

Satellite ITALSAT 1 at a glance.

Uptime

12532

Days in orbit

Revolutions

≈ 1.0

Per day

Orbit

OTHER

Other

Inclination

14.6

Latest

Satellite identification and parameters

Extended collection of information and parameters for ITALSAT 1.

Object identification

Identified? True

Debris? False

Object name: ITALSAT 1

International designator: 1991-003A

Object number (NORAD): 21055

Object ID (CCSDS): 21055

Country: ITALY (IT)

Current information (Y/N): Y

RCS size: LARGE

Orbital parameters

Period: 1440.46 minutes

Inclination: 14.6485 deg

SMA: 42250.091 km

Apoapsis: 35931.5 km

Periapsis: 35812.413 km

RAAN: 354.6035 deg

Eccentricy: 0.0014093

Argument of periapsis: 51.7495 deg

Mean anomaly: 132.9533 deg

Mean motion: 0.99968064 rev/day

Mean motion (dot): -0.00000312 rev/day2

B* drag term: 0.0 1/REarth

Two-line elements (TLE)

Creation date: May 6, 2025, 3:54 a.m.

Reference frame: TEME

Reference center: EARTH

Epoch: May 5, 2025, 12:24 a.m. UTC

TLE line 0: 0 ITALSAT 1

TLE line 1: 1 21055U 91003A 25125.01670684 -.00000312 00000-0 00000-0 0 9990

TLE line 2: 2 21055 14.6485 354.6035 0014093 51.7495 132.9533 0.99968064113009

Live tracking on map

Real-time ground track for satellite ITALSAT 1.

In-orbit conjunctions

There are no conjunctions computed for ITALSAT 1, at the moment. Check back to stay up to date, as we update our databases every day.

Go to all conjunctions

Associated space launch

Italy's first operational communications satellite was launched 15 January 1991 by an Ariane-44L H10 booster. Developed by a contractor team led by Alenia Spazio, Italsat carries ten active transponders plus five spares for 30/20 GHz and 50/40 GHz links with a capacity of 12,000 telephone circuits.

ITALSAT 1 was lifted into orbit during the mission ‘Ariane 44L | Italsat 1’, on board a Ariane 44L space rocket.

The launch took place on Jan. 15, 1991, 11:10 p.m. from Ariane Launch Area 2.

For more information about the launch, click the button.

Launch to space Ariane 44L | Italsat 1
Ariane 44L | Italsat 1

Agency: N/A

Status: Launch Successful

Launch date: Jan. 15, 1991, 11:10 p.m. UTC

Rocket: Ariane 44L

Launch pad: Ariane Launch Area 2

Location: Guiana Space Centre, French Guiana

...

Latest news about this satellite

There are no fresh news available about this satellite. Check back as we update our databases every day.


Newsletter sign-up

Weekly statistics, charts and insights to help you stay on top of the space industry.